This is the latest recevied weather packets stored in our database for station/object DB0SMU-12. If no packets are shown the sender has not sent any weather packets the latest 1 day(s).
| Time | Temp. | Humidity | Pressure | Rain* | Wind** | Luminosity | Snow |
|---|---|---|---|---|---|---|---|
| 1778012486 | 13.89° C | 71% | 1010.5 hPa | 0 mm | 7.6 m/s, 238° | - | - |
| 1778012305 | 14.44° C | 72% | 1010.7 hPa | 0 mm | 7.6 m/s, 234° | - | - |
| 1778012124 | 14.44° C | 73% | 1010.5 hPa | 0 mm | 6.26 m/s, 239° | - | - |
| 1778011943 | 14.44° C | 73% | 1010.5 hPa | 0 mm | 6.26 m/s, 233° | - | - |
| 1778011762 | 14.44° C | 74% | 1010.4 hPa | 0 mm | 7.15 m/s, 234° | - | - |
| 1778011581 | 14.44° C | 73% | 1010.4 hPa | 0 mm | 6.26 m/s, 230° | - | - |
| 1778011400 | 14.44° C | 73% | 1010.4 hPa | 0 mm | 5.81 m/s, 234° | - | - |
| 1778011219 | 14.44° C | 73% | 1010.3 hPa | 0 mm | 5.36 m/s, 244° | - | - |
| 1778011038 | 13.89° C | 73% | 1010.3 hPa | 0 mm | 5.36 m/s, 234° | - | - |
| 1778010858 | 13.89° C | 73% | 1010.2 hPa | 0 mm | 4.92 m/s, 234° | - | - |
| 1778010677 | 13.89° C | 73% | 1010.1 hPa | 0 mm | 4.92 m/s, 228° | - | - |
| 1778010496 | 13.89° C | 74% | 1010.1 hPa | 0 mm | 4.47 m/s, 227° | - | - |
| 1778010315 | 13.89° C | 74% | 1010.1 hPa | 0 mm | 5.36 m/s, 230° | - | - |
| 1778010134 | 13.89° C | 75% | 1009.9 hPa | 0 mm | 3.58 m/s, 225° | - | - |
| 1778009953 | 13.89° C | 75% | 1009.9 hPa | 0 mm | 4.02 m/s, 225° | - | - |
| 1778009772 | 13.89° C | 74% | 1009.8 hPa | 0 mm | 3.58 m/s, 226° | - | - |
| 1778009591 | 13.89° C | 74% | 1009.7 hPa | 0 mm | 3.13 m/s, 225° | - | - |
| 1778009411 | 13.89° C | 74% | 1009.6 hPa | 0 mm | 2.68 m/s, 233° | - | - |
| 1778009230 | 14.44° C | 73% | 1009.5 hPa | 0 mm | 2.68 m/s, 229° | - | - |
| 1778009049 | 13.89° C | 74% | 1009.5 hPa | 0 mm | 2.68 m/s, 229° | - | - |
| 1778008868 | 13.89° C | 73% | 1009.4 hPa | 0 mm | 2.68 m/s, 227° | - | - |
| 1778008687 | 14.44° C | 73% | 1009.4 hPa | 0 mm | 2.24 m/s, 228° | - | - |
| 1778008506 | 14.44° C | 73% | 1009.3 hPa | 0 mm | 2.24 m/s, 249° | - | - |
| 1778008325 | 14.44° C | 73% | 1009.4 hPa | 0 mm | 2.24 m/s, 242° | - | - |
| 1778008144 | 14.44° C | 74% | 1009.3 hPa | 0 mm | 1.79 m/s, 252° | - | - |
* Rain latest hour (hover to see other rain measurements)
** Current wind speed in m/s (hover to see current wind gust speed)